Weather History for KLNK - January, 1998

Change the Weather History Date:

Thursday, January 29, 1998

  Actual Average Record
Temperature  
Mean Temperature 38 °F 25 °F  
Max Temperature 48 °F 36 °F 66 °F (1931)
Min Temperature 28 °F 14 °F -18 °F (1966)
Degree Days  
Heating Degree Days 27 40  
Month to date heating degree days 1176  
Since 1 July heating degree days 3621  
Cooling Degree Days 0 0  
Month to date cooling degree days 0  
Year to date cooling degree days 0  
Moisture  
Dew Point 33 °F    
Average Humidity 86    
Maximum Humidity 100    
Minimum Humidity 64    
Precipitation  
Precipitation 0.00 in 0.02 in 0.52 in (1922)
Month to date precipitation 0.59  
Year to date precipitation 0.59  
Snow  
Snow 0.00 in 0.20 in - ()
Month to date snowfall 5.0  
Since 1 July snowfall 13.7  
Snow Depth -    
Sea Level Pressure  
Sea Level Pressure 30.05 in    
Wind  
Wind Speed 5 mph (West)    
Max Wind Speed 9 mph    
Max Gust Speed -    
Visibility 10 miles    
Events      
T = Trace of Precipitation, MM = Missing Value Source: NWS Daily Summary

Daily Weather History Graph

Daily Weather History Graph

Search for Another Location

Airport or City:

Trip Planner

Search our weather history database for the weather conditions in past years. The results will help you decide how hot, cold, wet, or windy it might be!

Date:

Astronomy

Jan. 29, 1998 Rise Set
Actual Time 7:40 AM CST 5:40 PM CST
Civil Twilight 7:10 AM CST 6:09 PM CST
Nautical Twilight 6:38 AM CST 6:42 PM CST
Astronomical Twilight 6:05 AM CST 7:15 PM CST
Moon 8:30 AM CST 7:42 PM CST
Length of Visible Light 10h 58m
Length of Day
10h 00m
Waxing Crescent, 3% of the Moon is Illuminated
Jan 29
Waxing Crescent
Feb 3
First Quarter
Feb 11
Full
Feb 19
Last Quarter
Feb 26
New

Hourly Weather History & Observations

Time (CST) Temp. Windchill Dew Point Humidity Pressure Visibility Wind Dir Wind Speed Gust Speed Precip Events Conditions
12:54 AM 37.0 °F 32.4 °F 33.1 °F 86% 30.03 in 10.0 mi WNW 5.8 mph - N/A   Partly Cloudy
1:54 AM 35.1 °F 28.6 °F 32.0 °F 89% 30.04 in 10.0 mi WNW 8.1 mph - N/A   Clear
2:54 AM 33.1 °F 26.1 °F 32.0 °F 96% 30.05 in 10.0 mi NW 8.1 mph - N/A   Clear
3:54 AM 33.1 °F 25.5 °F 30.9 °F 92% 30.05 in 10.0 mi NW 9.2 mph - N/A   Clear
4:54 AM 32.0 °F 25.6 °F 30.0 °F 92% 30.05 in 10.0 mi WNW 6.9 mph - N/A   Clear
5:54 AM 32.0 °F 28.7 °F 30.0 °F 92% 30.06 in 10.0 mi WNW 3.5 mph - N/A   Clear
6:54 AM 28.0 °F 22.8 °F 27.0 °F 96% 30.08 in 10.0 mi West 4.6 mph - N/A   Clear
7:54 AM 30.0 °F 26.5 °F 28.0 °F 92% 30.10 in 10.0 mi WNW 3.5 mph - N/A   Clear
8:54 AM 32.0 °F - 30.0 °F 92% 30.11 in 10.0 mi Calm Calm - N/A   Clear
9:54 AM 37.0 °F 32.4 °F 34.0 °F 89% 30.11 in 10.0 mi NW 5.8 mph - N/A   Clear
10:54 AM 41.0 °F - 36.0 °F 82% 30.12 in 10.0 mi Calm Calm - N/A   Clear
11:54 AM 44.1 °F 41.5 °F 37.0 °F 76% 30.10 in 10.0 mi WSW 4.6 mph - N/A   Partly Cloudy
12:54 PM 46.0 °F 43.1 °F 37.9 °F 73% 30.08 in 10.0 mi WSW 5.8 mph - N/A   Partly Cloudy
1:54 PM 46.9 °F - 37.9 °F 71% 30.05 in 10.0 mi WSW 4.6 mph - N/A   Scattered Clouds
2:54 PM 48.9 °F - 37.0 °F 64% 30.04 in 10.0 mi West 6.9 mph - N/A   Scattered Clouds
3:54 PM 48.9 °F - 37.0 °F 64% 30.03 in 10.0 mi WSW 9.2 mph - N/A   Partly Cloudy
4:54 PM 46.9 °F - 37.9 °F 71% 30.02 in 10.0 mi SSW 5.8 mph - N/A   Partly Cloudy
5:54 PM 41.0 °F 39.0 °F 35.1 °F 79% 30.03 in 10.0 mi South 3.5 mph - N/A   Clear
6:54 PM 37.9 °F 34.4 °F 34.0 °F 86% 30.04 in 10.0 mi SSE 4.6 mph - N/A   Clear
7:54 PM 37.0 °F 34.5 °F 34.0 °F 89% 30.02 in 10.0 mi South 3.5 mph - N/A   Clear
8:54 PM 34.0 °F 31.0 °F 32.0 °F 92% 30.03 in 10.0 mi SSE 3.5 mph - N/A   Clear
9:54 PM 34.0 °F - 33.1 °F 96% 30.02 in 10.0 mi Calm Calm - N/A   Clear
10:54 PM 32.0 °F - 30.9 °F 96% 30.01 in 10.0 mi Calm Calm - N/A   Clear
11:54 PM 30.9 °F - 30.9 °F 100% 30.01 in 10.0 mi Calm Calm - N/A   Clear